Regional Weather Roundup
Issued by NWS Sioux Falls, SD

Home | Current Version | Previous Version | Text Only | Print | Product List | Glossary On
Versions: 1 2 3 4 5 6 7 8 9 10 11 12 13 14 15 16 17 18 19 20 21 22 23 24 25 26 27 28 29 30 31 32 33 34 35 36 37 38 39 40 41 42 43 44 45 46 47 48 49 50
505
ASUS43 KFSD 222310
RWRFSD

WEATHER ROUNDUP FOR SE SOUTH DAKOTA/SW MINNESOTA/NW IOWA
NATIONAL WEATHER SERVICE SIOUX FALLS SD
600 PM CDT SUN SEP 22 2019

NOTE: "FAIR" INDICATES FEW OR NO CLOUDS BELOW 12,000 FEET WITH NO
SIGNIFICANT WEATHER AND OR OBSTRUCTIONS TO VISIBILITY.


SDZ038>040-050-052>070-230000-
SOUTHEAST SOUTH DAKOTA

CITY           SKY/WX    TMP DP  RH WIND       PRES   REMARKS
BROOKINGS      MOSUNNY   65  51  60 NW7       29.92R
CHAMBERLAIN    MOSUNNY   67  51  57 NW5       29.95S
HURON          CLOUDY    66  50  56 W12       29.92R
MADISON        FAIR      64  48  55 W9        29.94R
MITCHELL       PTSUNNY   68  48  48 W9        29.94R
SIOUX FALLS    PTSUNNY   69  47  45 NW9       29.93R
WINNER         FAIR      69  46  43 CALM      29.96S
YANKTON        MOSUNNY   69  48  47 W10       29.95R
$$

MNZ071-072-080-081-089-090-097-098-230000-
SOUTHWEST MINNESOTA

CITY           SKY/WX    TMP DP  RH WIND       PRES   REMARKS
FAIRMONT       SUNNY     63  51  65 NW7       29.93R
JACKSON        SUNNY     63  48  59 NW7       29.94R
LUVERNE        MOSUNNY   66  43  42 NW8       29.92S
MARSHALL       SUNNY     67  51  56 CALM      29.91S
MONTEVIDEO     MOSUNNY   64  50  59 SW3       29.89S
PIPESTONE      SUNNY     66  48  52 NW7       29.92R
REDWOOD FALLS  SUNNY     65  52  62 CALM      29.90R
TRACY          SUNNY     64  52  63 CALM      29.91S
WORTHINGTON    SUNNY     64  48  56 CALM      29.93S
$$

IAZ001>003-012>014-020>022-031-032-NEZ013-014-SDZ071-230000-
NORTHWEST IOWA

CITY           SKY/WX    TMP DP  RH WIND       PRES   REMARKS
CHEROKEE       PTSUNNY   68  57  66 N5        29.92R
DENISON        MOSUNNY   70  59  68 N8        29.93S
ESTHERVILLE    SUNNY     62  49  62 NW7       29.92S
LE MARS        PTSUNNY   70  54  56 NW7       29.92R
MAURICE        FAIR      66  54  63 NW8       29.92R
SIOUX CITY     SUNNY     69  55  60 NW9       29.92R
SPENCER        MOSUNNY   68  51  54 N6        29.93R
STORM LAKE     SUNNY     66  55  68 NW6       29.90R
$$

ABBREVIATIONS USED IN REMARKS
   TC - TEMPERATURE IN CELSIUS
  WCI - WIND CHILL INDEX
   HX - HEAT INDEX
  VSB - VISIBILITY





USA.gov is the U.S. government's official web portal to all federal, state and local government web resources and services.